{"data":{"norad_id":62006,"intl_designator":"2024-212A","name":"OPTUS-X (ADS-01)","alt_names":[],"object_type":"PAYLOAD","status":"ACTIVE","operator":null,"country":"AUS","launch_date":"2024-11-17","launch_site_code":"AFETR","launch_vehicle":null,"mission":null,"orbit_class":"UNKNOWN","rcs_meters":null,"size_class":null,"mass_kg":null,"dimensions":null,"purposes":["comms"],"wikipedia_slug":null,"has_3d_model":false,"image_url":null,"decayed_at":null,"tle_current":{"epoch":"2026-05-25T02:46:28.390368Z","epoch_age_seconds":65176,"freshness":"FRESH","line1":"1 62006U 24212A   26145.11560637 -.00000146  00000+0  00000+0 0  9992","line2":"2 62006   0.0179 303.2729 0001503 153.3911 344.0606  1.00271482  5521","mean_motion":1.00271482,"eccentricity":0.0001503,"inclination_deg":0.0179,"raan_deg":303.2729,"arg_perigee_deg":153.3911,"mean_anomaly_deg":344.0606,"bstar":0,"rev_number":552,"period_min":1436.1012436218,"perigee_km":35780.342531323,"apogee_km":35793.017275284,"semimajor_km":42164.816903304,"source":"CELESTRAK","updated_at":"2026-05-25T13:38:14.148610Z"}}}